Regional Weather Roundup
Issued by NWS

Home | Current Version | Previous Version | Graphics & Text | Print | Product List | Glossary On
Versions: 1 2 3 4 5 6 7 8 9 10 11 12 13 14 15 16 17 18 19 20 21 22 23 24 25 26 27 28 29 30 31 32 33 34 35 36 37 38 39 40 41 42 43 44 45 46 47 48 49 50
000
ASUS43 KDMX 291806
RWRIA

WEATHER ROUNDUP FOR IOWA
NATIONAL WEATHER SERVICE DES MOINES IA
100 PM CDT SAT APR 29 2017

NOTE: "FAIR" INDICATES FEW OR NO CLOUDS BELOW 12,000 FEET WITH NO
SIGNIFICANT WEATHER AND/OR OBSTRUCTIONS TO VISIBILITY.

* - THESE STATIONS ARE NOT NWS STATIONS...THUS NOT UNDER NWS
QUALITY CONTROL.  THEY ALSO DO NOT REPORT WEATHER SUCH
AS PRECIPITATION OR FOG.

IAZ001>003-012>014-020>022-031>034-043>046-291900-
   NORTHWEST IOWA

CITY           SKY/WX    TMP DP  RH WIND       PRES   REMARKS
CARROLL *      CLOUDY    46  37  71 NE18G35   30.16R
CHEROKEE *     CLOUDY    48  33  55 E17       30.20R
DENISON *      CLOUDY    45  34  65 NE24G37   30.13F
LE MARS *      PTSUNNY   50  32  50 NE15G22   30.20S
ORANGE CITY *  CLOUDY    48  34  57 E10G18    30.19R
SHELDON *      CLOUDY    48  32  53 NE18G26   30.18R
SIOUX CITY     CLOUDY    50  32  50 NE14G28   30.17S
6HR MIN TEMP:  41; 6HR MAX TEMP:  51;

SPENCER        PTSUNNY   49  32  52 NE23      30.19S
6HR MIN TEMP:  38; 6HR MAX TEMP:  49;

STORM LAKE *     N/A     46  32  57 E22G29    30.19R
$$

IAZ055>058-069>071-079>083-090>094-291900-
   SOUTHWEST IOWA

CITY           SKY/WX    TMP DP  RH WIND       PRES   REMARKS
ATLANTIC *     MIX PCPN  43  39  87 NE22G31   30.09S
AUDUBON *      DRIZZLE   43  37  81 NE24G30   30.12S
CLARINDA *     CLOUDY    45  43  93 NE17G24   30.05R
COUNCIL BLFS * CLOUDY    43  41  93 NE17G26   30.10R
CRESTON *      LGT RAIN  43  43 100 NE23G36   30.06S
HARLAN  *      CLOUDY    43  39  87 NE20G31   30.14S
LAMONI         RAIN      44  42  93 NE20G25   30.02F FOG
6HR MIN TEMP:  43; 6HR MAX TEMP:  44; 6HR PCP:  0.46;

RED OAK *      CLOUDY    45  43  93 NE18G28   30.06R
SHENANDOAH *   MIX PCPN  45  43  93 NE18G25   30.03R
$$

IAZ047>049-059>061-072>074-084-291900-
   CENTRAL IOWA

CITY           SKY/WX    TMP DP  RH WIND       PRES   REMARKS
AMES           LGT RAIN  43  39  86 NE15      30.16R
6HR MIN TEMP:  42; 6HR MAX TEMP:  45; 6HR PCP:  0.04;

ANKENY *       LGT RAIN  43  39  87 NE12      30.15F
BOONE *        LGT RAIN  41  39  93 NE21G29   30.14F
CHARITON *     RAIN      43  43 100 NE17G25   30.08R
DES MOINES     LGT RAIN  44  40  85 NE15      30.13R FOG
6HR MIN TEMP:  44; 6HR MAX TEMP:  46; 6HR PCP:  0.23;

GRINNELL*      RAIN      42  39  88 NE15      30.14R
KNOXVILLE *    RAIN      43  41  93 NE13G23   30.07F
MARSHALLTOWN   LGT RAIN  43  38  82 NE14      30.16R
6HR MIN TEMP:  42; 6HR MAX TEMP:  45; 6HR PCP:  0.02;

NEWTON *       CLOUDY    43  39  87 NE13G20   30.12R FOG
PELLA *        RAIN      43  41  93 NE8       30.11F
PERRY *        LGT RAIN  42  39  87 NE16G22   30.14F
$$

IAZ004>006-015-016-023>025-035-036-291900-
   NORTH CENTRAL IOWA

CITY           SKY/WX    TMP DP  RH WIND       PRES   REMARKS
ALGONA *       CLOUDY    46  32  57 NE18G25   30.19R
CLARION *      CLOUDY    45  36  70 E16G23    30.20R
ESTHERVILLE    CLOUDY    46  31  55 NE22      30.18F
6HR MIN TEMP:  36; 6HR MAX TEMP:  46;

FORT DODGE *   CLOUDY    45  32  61 E21       30.20R
MASON CITY     CLOUDY    46  29  51 NE21G26   30.20R
6HR MIN TEMP:  38; 6HR MAX TEMP:  46;

FOREST CITY *    N/A     45  27  49 NE12      30.20R
WEBSTER CITY * CLOUDY    45  36  70 E18       30.18R
IOWA FALLS *   CLOUDY    44  35  69 NE12      30.20R
$$

IAZ007>011-017>019-026>030-037>042-050>054-066-291900-
   NORTHEAST IOWA

CITY           SKY/WX    TMP DP  RH WIND       PRES   REMARKS
CEDAR RAPIDS   LGT RAIN  43  40  89 NE18G25   30.10F
6HR MIN TEMP:  43; 6HR MAX TEMP:  46; 6HR PCP:  0.04;

CHARLES CITY * CLOUDY    45  28  53 NE21      30.19S
CLINTON *      RAIN      44  41  89 NE20G25   30.11F
DECORAH *      PTSUNNY   45  30  57 NE10G25   30.19R
DUBUQUE        CLOUDY    45  33  63 NE21G30   30.17S
6HR MIN TEMP:  43; 6HR MAX TEMP:  45;

MONTICELLO *   LGT RAIN  45  37  76 NE16G24   30.14F
OELWEIN *      CLOUDY    45  34  65 NE16G23   30.19R
WATERLOO       CLOUDY    45  33  63 E14       30.19R
6HR MIN TEMP:  40; 6HR MAX TEMP:  45;

$$

IAZ064-065-067-068-078-291900-
   EAST CENTRAL IOWA

CITY           SKY/WX    TMP DP  RH WIND       PRES   REMARKS
DAVENPORT      RAIN      42  39  89 NE23G31   30.08F FOG
6HR MIN TEMP:  42; 6HR MAX TEMP:  47; 6HR PCP:  0.23;

IOWA CITY      LGT RAIN  45  39  79 NE14G26   30.10F
6HR MIN TEMP:  45; 6HR MAX TEMP:  49; 6HR PCP:  0.07;

MT. PLEASANT * RAIN      42  42  98 NE16G23   30.04R
MUSCATINE *    LGT RAIN  43  41  93 NE18G30   30.06F
QUAD CITIES    LGT RAIN  43  39  86 NE18G30   30.07F FOG
6HR MIN TEMP:  43; 6HR MAX TEMP:  48; 6HR PCP:  0.23;

$$

IAZ062-063-075>077-085>089-095>099-291900-
   SOUTHEAST IOWA

CITY           SKY/WX    TMP DP  RH WIND       PRES   REMARKS
BURLINGTON     RAIN      43  50 100 NE25G36   29.99F
6HR MIN TEMP:  43; 6HR MAX TEMP:  48; 6HR PCP:  0.38;

FAIRFIELD *    CLOUDY    43  39  87 NE17      30.06R FOG
FORT MADISON * LGT RAIN  43  43 100 NE16G25   30.00F
KEOKUK *       RAIN      45  43  93 NE15G24   30.00R
OSKALOOSA *    MIX PCPN  43  41  94 NE14      30.09R
CENTERVILLE *  RAIN      41  41 100 NE16G29   30.03F
OTTUMWA        RAIN      43  42  97 NE20      30.07R FOG
6HR MIN TEMP:  43; 6HR MAX TEMP:  47; 6HR PCP:  0.32;

WASHINGTON *   RAIN      43  41  93 NE23      30.07R
$$

ABBREVIATIONS USED IN REMARKS
   TC - TEMPERATURES IN CELSIUS
  WCI - WIND CHILL INDEX
   HX - HEAT INDEX
  VSB - VISIBILITY
$$




USA.gov is the U.S. government's official web portal to all federal, state and local government web resources and services.